Location: Boccalona
(44.9500°N, 10.6000°E)
Time: 22:53:38
(UTC+00:00)

Daily predictions for brighter satellites

Satellite Brightness Start Highest point End
(mag) Time Altitude Azimuth Time Altitude Azimuth Time Altitude Azimuth
Cosmos 1607 4.1 19:16:13 10° NW 19:22:38 83° WSW 19:29:04 10° SSE
Meteor 1-27 Rocket 4.3 19:18:17 10° SSW 19:24:10 67° WNW 19:30:00 10° N
STARLINK-1129 3.7 19:20:40 10° NW 19:24:50 80° NNE 19:28:59 10° ESE
STARLINK-1187 3.0 19:22:05 10° SW 19:25:04 49° SE 19:28:05 10° ENE
STARLINK-1191 3.1 19:23:29 10° SW 19:26:27 45° SE 19:29:26 10° ENE
Resurs 01 Rocket 1.9 19:22:58 10° SSE 19:27:17 53° ENE 19:31:38 10° N
STARLINK-1221 3.1 19:24:22 10° SW 19:27:20 45° SE 19:30:19 10° ENE
NOSS 3-1 (C) 3.3 19:22:46 10° SSW 19:28:06 65° ESE 19:34:17 10° NE
STARLINK-1222 3.1 19:25:14 10° SW 19:28:13 46° SE 19:31:13 10° ENE
STARLINK-1214 3.1 19:26:09 10° SW 19:29:08 47° SE 19:32:08 10° ENE
NOSS 3-1 (A) 3.6 19:24:16 10° S 19:29:17 41° ESE 19:34:59 10° NE
STARLINK-1134 3.6 19:25:40 10° WNW 19:29:50 86° NE 19:33:58 10° ESE
H-2A R/B 3.6 19:26:38 10° SSW 19:31:09 34° W 19:35:47 10° NNW
USA 186 3.9 19:29:47 10° SW 19:31:32 18° W 19:33:22 10° NW
Abrixas rocket 1.8 19:29:00 10° WSW 19:31:57 75° SSE 19:34:53 10° ENE
STARLINK-1157 3.5 19:28:56 10° WNW 19:32:13 54° SW 19:35:29 10° SE
CREW DRAGON DEMO-1 DEB 3.4 19:30:35 10° NW 19:33:38 54° NNE 19:36:41 10° ESE
STARLINK-1210 4.4 19:30:57 10° SSW 19:34:35 30° SE 19:38:13 10° ENE
Cosmos 1464 Rocket 4.3 19:28:20 10° N 19:34:42 78° W 19:41:04 10° S
STARLINK-1135 3.6 19:30:36 10° WNW 19:34:45 88° SW 19:38:54 10° SE
Meteor 1-4 Rocket 4.0 19:33:17 10° SE 19:35:50 19° E 19:38:22 10° NE
STARLINK-1219 4.3 19:35:49 10° SSW 19:39:32 33° SE 19:43:16 10° ENE
STARLINK-1141 3.6 19:35:36 10° WNW 19:39:45 82° SW 19:43:45 11° SE
NOSS 2-3 (C) 4.1 19:36:30 10° S 19:40:22 36° ESE 19:44:46 10° NE
Aureole 1 Rocket 3.9 19:37:41 10° N 19:41:27 38° ENE 19:46:04 11° SE
Cosmos 1782 Rocket 4.1 19:37:16 10° N 19:41:34 44° ENE 19:45:50 10° SSE
STARLINK-1211 4.2 19:40:41 10° SSW 19:44:28 36° SE 19:48:16 10° ENE
STARLINK-1140 3.7 19:40:33 10° WNW 19:44:42 76° SW 19:48:30 12° SE
Cosmos 1140 Rocket 4.1 19:41:06 10° N 19:46:03 43° ENE 19:50:40 12° SE
BREEZE M DEB (TANK) 4.3 19:39:21 10° SSW 19:47:21 32° SSE 19:50:28 10° E
Cosmos 1703 Rocket 3.5 19:43:28 10° S 19:47:45 66° E 19:52:04 10° NNE
Cosmos 614 Rocket 3.9 19:44:08 10° NNW 19:49:14 76° ENE 19:54:13 11° SSE
STARLINK-1245 4.0 19:45:35 10° SSW 19:49:26 39° SE 19:53:19 10° ENE
Cosmos 1371 Rocket 4.2 19:44:30 10° S 19:49:33 49° ESE 19:54:35 10° NNE
STARLINK-1156 3.7 19:45:33 10° WNW 19:49:41 70° SW 19:53:18 13° SE
TELKOM 3 2.8 19:48:03 10° WNW 19:50:08 59° SSW 19:51:39 17° SE
Cosmos 1634 Rocket 4.4 19:47:46 10° N 19:53:53 50° ENE 19:59:38 12° SSE
STARLINK-1233 3.9 19:50:28 10° SSW 19:54:23 42° SE 19:58:19 10° ENE
Cosmos 1743 2.7 19:50:37 10° N 19:54:27 83° W 19:58:14 10° S
STARLINK-1148 3.8 19:50:33 10° WNW 19:54:39 65° SW 19:58:04 14° SE
STARLINK-1087 1.7 19:53:46 10° WNW 19:55:47 73° SW 19:56:54 22° SE
Landsat 7 4.4 19:52:21 12° SE 19:56:26 43° ENE 20:00:57 10° N
Cosmos 1544 3.5 19:53:23 10° N 19:56:55 46° ENE 19:59:45 15° SSE
Cosmos 2082 Rocket 3.8 19:53:03 10° N 19:57:36 24° NE 20:02:08 10° E
ERBS 4.3 20:00:02 12° ESE 20:00:02 12° ESE 20:00:44 10° E
SAR-Lupe-2 4.2 19:55:51 10° NNE 19:59:13 37° E 20:02:13 12° SSE
STARLINK-1204 3.8 19:55:23 10° SSW 19:59:21 46° SE 20:03:20 10° ENE
STARLINK-1158 3.9 19:55:32 10° WNW 19:59:38 59° SW 20:02:52 15° SE
Cosmos 1908 Rocket 3.9 19:56:10 10° NNW 20:00:34 66° W 20:04:59 10° S
STARLINK-1088 4.4 19:57:48 10° NW 20:01:50 47° NNE 20:05:46 10° E
ERS-1 Rocket 3.9 20:00:29 14° SE 20:04:16 34° ENE 20:08:46 10° N
STARLINK-1238 3.7 20:00:17 10° SW 20:04:17 50° SE 20:08:18 10° ENE
STARLINK-1162 4.0 20:00:30 10° WNW 20:04:34 54° SW 20:07:37 17° SE
STARLINK-1115 4.3 20:02:47 10° NW 20:06:50 50° NNE 20:10:33 12° E
Cosmos 1833 Rocket 3.5 20:01:35 10° NNW 20:06:51 39° NE 20:11:09 15° ESE
SeaSat 1 4.4 20:06:54 10° E 20:08:14 11° E 20:08:33 11° ESE
Cosmos 1975 2.8 20:04:58 10° N 20:09:03 74° E 20:12:22 15° SSE
STARLINK-1201 3.6 20:05:13 10° SW 20:09:16 56° SE 20:13:20 10° ENE
Tsikada Rocket 4.0 20:03:05 10° S 20:09:19 87° W 20:15:31 10° N
Spot 2 Rocket 3.5 20:05:07 13° SSE 20:09:33 70° ENE 20:14:35 10° N
STARLINK-1076 4.2 20:07:45 10° NW 20:11:49 53° NNE 20:15:20 13° ESE
CZ-2C R/B 3.7 20:07:50 10° N 20:13:13 50° WNW 20:18:35 10° SW
Meteor 2-9 Rocket 4.1 20:07:58 10° N 20:13:25 78° E 20:18:01 14° SSE
Cosmos 676 Rocket 4.4 20:08:40 10° NNW 20:13:46 50° ENE 20:17:33 18° SE
STARLINK-1206 3.6 20:10:09 10° SW 20:14:14 60° SE 20:18:19 10° ENE
STARLINK-1159 4.2 20:10:32 10° WNW 20:14:30 46° SW 20:17:12 19° SSE
Cosmos 389 Rocket 3.7 20:13:28 10° SSW 20:16:45 42° WNW 20:20:06 10° N
STARLINK-1092 4.1 20:12:42 10° NW 20:16:48 56° NNE 20:20:06 15° ESE
Cosmos 2056 Rocket 3.4 20:13:05 10° SSW 20:18:10 75° ESE 20:23:17 10° NNE
Okean 1 4.2 20:15:06 10° SSW 20:19:02 52° WNW 20:23:01 10° N
STARLINK-1205 3.5 20:15:06 10° SW 20:19:12 66° SE 20:23:18 10° ENE
STARLINK-1171 4.3 20:15:33 10° WNW 20:19:29 42° SW 20:22:00 19° SSE
SL-4 R/B 3.7 20:17:54 10° N 20:19:53 15° NE 20:21:42 10° E
STARLINK-1080 4.0 20:17:43 10° NW 20:21:50 60° NNE 20:24:55 17° ESE
Iridium 51 4.4 20:19:38 10° S 20:23:50 78° W 20:27:42 10° N
STARLINK-1218 3.5 20:20:02 10° SW 20:24:09 71° SE 20:28:17 10° ENE
Cosmos 1023 Rocket 4.5 20:18:57 10° NNW 20:24:11 88° WSW 20:28:05 18° SSE
STARLINK-1155 4.5 20:20:35 10° WNW 20:24:26 38° SW 20:26:47 20° SSE
ISS -1.8 20:21:46 10° NW 20:24:43 28° N 20:27:42 10° ENE
Cosmos 909 Rocket 4.4 20:18:01 10° NW 20:25:58 76° WSW 20:31:07 18° SSE
Meteor 1-19 Rocket 4.3 20:21:05 10° SSW 20:26:38 80° W 20:32:25 10° N
STARLINK-1090 3.9 20:22:41 10° NW 20:26:49 64° NNE 20:29:42 19° ESE
STARLINK-1254 3.5 20:25:01 10° SW 20:29:08 77° SE 20:33:17 10° ENE
CARTOSAT-1 4.0 20:28:14 22° SE 20:30:43 49° ENE 20:34:55 10° N
SL-8 R/B 4.1 20:26:03 10° W 20:30:50 65° NNW 20:35:38 10° ENE
Cosmos 2278 Rocket 2.3 20:25:37 10° S 20:31:09 59° ESE 20:36:44 10° NNE
STARLINK-1089 3.8 20:27:40 10° NW 20:31:49 68° NNE 20:34:28 21° ESE
STARLINK-1231 3.5 20:29:59 10° SW 20:34:08 83° SE 20:38:17 10° ENE
STARLINK-1107 3.7 20:32:38 10° NW 20:36:47 73° NNE 20:39:14 23° ESE
Cosmos 1437 Rocket 3.7 20:37:00 25° ESE 20:37:52 28° E 20:41:08 10° NNE
STARLINK-1232 3.5 20:34:58 10° SW 20:39:06 89° SSE 20:43:16 10° ENE
Meteor 1-12 Rocket 4.2 20:33:54 10° N 20:39:33 71° ENE 20:43:14 22° SSE
NOSS 2-3 (E) 4.0 20:35:44 10° SW 20:39:58 68° NW 20:45:02 10° NE
Lacrosse 5 2.8 20:36:00 10° NW 20:40:49 42° NNE 20:44:51 14° E
Terra 2.4 20:38:31 23° SE 20:41:02 43° ENE 20:45:33 10° N
STARLINK-1066 3.6 20:37:37 10° NW 20:41:47 78° NNE 20:44:02 26° ESE
STARLINK-1208 3.6 20:39:55 10° WSW 20:44:04 85° NNW 20:48:14 10° ENE
STARLINK-1081 3.6 20:42:36 10° WNW 20:46:46 84° NE 20:48:49 29° ESE
IGS 5A 3.9 20:44:11 20° S 20:46:57 58° W 20:51:04 10° NNW
STARLINK-1271 3.7 20:44:55 10° WSW 20:49:04 79° NNW 20:53:13 10° NE
Cosmos 1452 Rocket 3.7 20:45:55 22° S 20:49:10 51° ESE 20:54:17 10° NNE
Okean 3 3.6 20:47:56 16° SSW 20:51:16 77° W 20:55:36 10° N
STARLINK-1070 3.5 20:47:33 10° WNW 20:51:44 90° ENE 20:53:35 32° ESE
Cosmos 2142 Rocket 4.5 20:45:39 10° N 20:51:48 84° W 20:56:11 20° S
Cosmos 1300 Rocket 3.5 20:47:41 10° N 20:52:10 85° E 20:54:26 29° S
USA 245 4.2 20:50:55 18° SSW 20:53:19 37° WSW 20:56:18 10° NNW
Crew Dragon 2.5 20:51:42 10° NW 20:53:24 19° NNE 20:54:14 16° NE
STARLINK-1154 3.8 20:49:55 10° WSW 20:54:03 74° NNW 20:58:12 10° NE
Cosmos 1420 Rocket 3.9 20:51:00 12° SSW 20:55:53 83° ESE 21:01:06 10° NNE
STARLINK-1069 3.5 20:52:32 10° WNW 20:56:42 84° SSW 20:58:22 35° SE
Cosmos 2221 Rocket 3.8 20:54:39 16° SSW 20:58:09 71° W 21:02:42 10° N
STARLINK-1197 3.9 20:54:54 10° WSW 20:59:02 69° NNW 21:03:10 10° NE
Meteor 1-13 Rocket 4.1 20:56:54 19° S 21:00:59 83° E 21:06:41 10° NNE
STARLINK-1236 4.4 21:02:20 31° ESE 21:02:20 31° ESE 21:05:15 10° ENE
STARLINK-1085 3.5 20:57:32 10° WNW 21:01:42 78° SW 21:03:10 39° SE
COSMOS 2406 3.7 20:56:56 10° NW 21:02:34 54° WSW 21:05:59 23° S
MTI 4.2 20:59:36 10° NNE 21:02:33 42° E 21:02:33 42° E
Cosmos 371 Rocket 3.2 21:00:02 25° S 21:02:49 66° ESE 21:07:39 10° NNE
STARLINK-1198 4.0 20:59:53 10° WSW 21:04:00 64° NNW 21:08:07 10° NE
Resurs 01 Rocket 4.1 21:01:15 10° SW 21:04:05 16° W 21:06:56 10° NW
Meteor 2-4 Rocket 4.1 20:59:11 10° SSW 21:04:31 60° WNW 21:09:49 10° N
USA 215 3.9 20:58:28 10° E 21:04:44 51° NNE 21:11:01 10° NW
SPOT 1/Viking Rocket 4.1 21:02:31 20° S 21:05:57 52° W 21:11:00 10° NNW
Cosmos 1674 Rocket 3.6 21:04:49 36° SSE 21:06:25 62° E 21:10:45 10° NNE
STARLINK-1086 3.6 21:02:31 10° WNW 21:06:40 72° SW 21:07:57 42° SE
Abrixas rocket 3.2 21:04:46 10° WNW 21:07:36 41° N 21:09:45 15° ENE
STARLINK-1199 4.2 21:04:55 10° WSW 21:09:01 60° NNW 21:13:08 10° NE
STARLINK-1269 4.1 21:11:51 39° ESE 21:11:51 39° ESE 21:15:16 10° ENE
STARLINK-1095 3.6 21:07:30 10° WNW 21:11:37 67° SW 21:12:43 45° SSE
Cosmos 1378 Rocket 3.7 21:12:35 40° SSE 21:13:54 57° E 21:18:13 10° NNE
STARLINK-1210 4.3 21:09:55 10° WSW 21:13:59 56° NNW 21:18:05 10° NE
SPOT 5 3.2 21:12:28 28° S 21:15:08 68° WSW 21:20:25 10° NNW
STARLINK-1200 3.9 21:16:40 44° ESE 21:16:40 44° ESE 21:20:18 10° ENE
STARLINK-1077 3.7 21:12:29 10° WNW 21:16:35 61° SW 21:17:29 47° SSE
Nadezhda 4 Rocket 4.0 21:13:37 29° SSE 21:16:44 63° E 21:22:48 10° NNE
STARLINK-1078 4.5 21:14:46 10° NW 21:18:47 46° NNE 21:21:05 22° E
STARLINK-1219 4.4 21:14:56 10° WSW 21:18:59 53° NNW 21:23:03 10° NE
STARLINK-1192 3.7 21:21:25 49° SE 21:21:25 49° SE 21:25:18 10° ENE
STARLINK-1075 3.8 21:17:29 10° WNW 21:21:33 56° SW 21:22:16 48° S
Cosmos 1741 Rocket 4.0 21:17:16 10° NNW 21:22:31 74° ENE 21:24:31 38° SE
STARLINK-1108 4.4 21:19:45 10° NW 21:23:47 49° NNE 21:25:52 25° E
Cosmos 1975 Rocket 4.3 21:23:46 26° E 21:24:07 26° E 21:27:49 10° NNE
Cosmos 2279 Rocket 4.4 21:18:31 10° NNW 21:24:37 57° W 21:28:35 22° SSW
STARLINK-1244 3.6 21:26:11 53° SE 21:26:15 54° SE 21:30:17 10° ENE
STARLINK-1093 3.8 21:22:29 10° WNW 21:26:31 51° SW 21:27:04 47° S
Cosmos 2297 4.0 21:25:26 36° SSE 21:27:13 48° ESE 21:32:41 10° NE
Okean 2 Rocket 4.4 21:23:54 10° NNW 21:27:56 34° W 21:30:14 21° SW
STARLINK-1071 4.3 21:24:43 10° NW 21:28:47 51° NNE 21:30:39 28° E
STARLINK-1138 3.5 21:30:58 57° SSE 21:31:13 58° SE 21:35:17 10° ENE
STARLINK-1074 3.9 21:27:29 10° WNW 21:31:29 47° SW 21:31:51 46° SSW
STARLINK-1110 4.2 21:28:55 10° NW 21:33:00 54° NNE 21:34:41 31° E
BREEZE-M DEB (TANK) 3.8 21:19:57 10° WNW 21:33:10 88° SW 21:35:38 32° ESE
STARLINK-1203 3.5 21:32:36 50° SSW 21:33:24 62° SE 21:37:33 10° ENE
ERBS 2.7 21:32:41 20° WSW 21:34:49 62° NW 21:38:06 10° NE
STARLINK-1143 3.5 21:35:45 59° S 21:36:10 64° SE 21:40:17 10° ENE
Cosmos 1850 Rocket 4.0 21:31:15 10° NNW 21:36:38 82° WSW 21:38:31 42° S
STARLINK-1124 4.0 21:34:40 10° NW 21:38:47 58° NNE 21:40:13 36° E
STARLINK-1241 3.4 21:40:29 57° SSW 21:41:08 69° SE 21:45:16 10° ENE
STARLINK-1088 4.2 21:37:30 10° WNW 21:41:23 40° SW 21:41:25 40° SW
Cosmos 2082 Rocket 2.3 21:36:31 10° NNW 21:42:12 67° WSW 21:44:18 39° S
ERS-1 Rocket 4.3 21:40:28 20° SW 21:43:02 32° W 21:47:32 10° NNW
STARLINK-1122 3.9 21:39:39 10° NW 21:43:46 62° NNE 21:45:00 41° E
Cosmos 1110 Rocket 4.0 21:43:29 46° SSE 21:44:47 61° ESE 21:49:54 10° NNE
Okean 1 Rocket 3.1 21:41:17 10° NNW 21:45:47 73° W 21:46:51 50° SSW
STARLINK-1239 3.4 21:45:15 54° SSW 21:46:06 75° SE 21:50:15 10° ENE
STARLINK-1115 4.4 21:42:30 10° WNW 21:46:10 36° SW 21:46:10 36° SW
SeaSat 1 2.3 21:41:27 10° NNE 21:46:25 81° ESE 21:48:18 39° SSW
STARLINK-1126 3.8 21:44:34 10° NW 21:48:42 66° NNE 21:49:44 46° E
ATLAS 2AS CENTAUR R/B 4.4 21:48:30 18° ESE 21:49:12 18° ESE 21:54:07 10° ENE
Aureole 2 Rocket 2.9 21:51:13 46° NE 21:51:13 46° NE 21:53:33 10° NNE
Cosmos 1833 Rocket 3.7 21:45:40 10° NW 21:50:42 35° WSW 21:52:51 26° SW
STARLINK-1240 3.4 21:50:02 49° SW 21:51:06 81° SE 21:55:15 10° ENE
Cosmos 304 Rocket 3.7 21:50:10 45° SSW 21:51:39 89° E 21:56:29 10° NNE
Cosmos 1805 3.1 21:49:15 10° N 21:53:11 83° E 21:53:26 76° SE
SL-4 R/B 2.6 21:50:16 10° NW 21:52:32 33° W 21:52:32 33° W
STARLINK-1082 3.7 21:49:36 10° NW 21:53:45 71° NNE 21:54:34 53° E
EO 1 Del DPAF 3.3 21:50:01 10° NNE 21:53:37 60° E 21:53:37 60° E
Okean 2 3.5 21:53:51 56° ESE 21:53:58 56° E 21:58:03 10° NNE
Cosmos 1092 Rocket 3.9 21:52:19 40° S 21:54:41 77° E 22:00:50 10° N
Cosmos 332 Rocket 4.4 21:52:44 23° SW 21:55:37 56° WNW 22:00:27 10° NNE
STARLINK-1216 3.5 21:54:48 44° SW 21:56:03 87° SSE 22:00:13 10° ENE
Cosmos 2369 Rocket 3.3 21:57:13 27° ESE 21:57:27 28° ESE 22:02:09 10° NE
Cosmos 1455 Rocket 3.6 21:54:28 10° N 21:58:39 44° ENE 21:59:07 42° E
STARLINK-1100 3.6 21:54:34 10° NW 21:58:43 76° NNE 21:59:21 61° E
STARLINK-1237 3.5 21:59:35 39° WSW 22:01:02 87° NW 22:05:13 10° ENE
ISS -3.3 21:58:29 10° WNW 22:01:21 59° NW 22:01:21 59° NW
Cosmos 1378 3.2 22:02:30 67° WSW 22:02:40 69° W 22:06:24 10° N
STARLINK-1083 3.5 21:59:32 10° NW 22:03:43 82° NE 22:04:07 70° E
USA 238 DEB 4.5 21:56:57 10° NNW 22:03:56 51° NE 22:08:58 20° ESE
USA 238 4.5 21:57:03 10° NNW 22:04:02 51° NE 22:09:06 20° ESE
Cosmos 1842 3.5 22:05:25 54° E 22:05:25 54° E 22:09:02 10° NNE
STARLINK-1202 3.6 22:04:22 35° WSW 22:06:02 81° NW 22:10:12 10° NE
Cosmos 1943 Rocket 2.5 22:07:35 44° SE 22:08:14 46° ESE 22:13:31 10° NE
Cosmos 1025 Rocket 4.5 22:08:42 25° E 22:08:42 25° E 22:12:00 10° NE
Cosmos 1331 Rocket 3.8 22:07:06 49° SSW 22:08:32 88° ESE 22:13:44 10° NNE
STARLINK-1125 3.5 22:04:32 10° WNW 22:08:41 87° NE 22:08:54 80° ESE
Cosmos 1302 Rocket 4.2 22:12:14 48° SE 22:12:51 51° ESE 22:17:59 10° NNE
STARLINK-1109 3.4 22:09:30 10° WNW 22:13:39 87° SSW 22:13:40 87° SSW
SL-8 R/B 4.2 22:09:00 10° WNW 22:13:46 60° N 22:17:57 13° E
Meteor 2-13 Rocket 4.4 22:12:50 45° SSE 22:14:42 70° E 22:20:51 10° NNE
Cosmos 2278 Rocket 4.2 22:10:57 10° WSW 22:15:38 26° NW 22:20:20 10° N
STARLINK-1246 3.8 22:13:54 28° WSW 22:15:59 71° NNW 22:20:08 10° NE
Cosmos 2195 Rocket 4.5 22:14:47 40° SSW 22:17:15 84° W 22:23:36 10° N
STARLINK-1091 3.5 22:14:29 10° WNW 22:18:27 78° WSW 22:18:27 78° WSW
Terra 3.5 22:17:23 19° WSW 22:18:58 22° W 22:22:42 10° NW
ALOS 2 3.0 22:19:22 46° E 22:19:54 49° ENE 22:24:09 10° N
STARLINK-1224 3.9 22:18:40 25° WSW 22:20:59 66° NNW 22:25:06 10° NE
STARLINK-1072 3.7 22:19:28 10° WNW 22:23:15 68° W 22:23:15 68° W
Lacrosse 5 2.2 22:19:02 10° WNW 22:23:52 47° SW 22:24:01 47° SW
Spot 4 3.8 22:23:24 60° SSW 22:24:13 76° WSW 22:29:07 10° NNW
STARLINK-1225 4.0 22:23:26 22° WSW 22:25:59 62° NNW 22:30:06 10° NE
Thor Agena Rocket 3.8 22:20:57 10° N 22:26:12 64° WNW 22:28:05 39° SW
Cosmos 1428 Rocket 4.4 22:26:15 45° S 22:28:25 88° W 22:34:45 10° N
STARLINK-1096 3.8 22:24:29 10° WNW 22:28:03 59° W 22:28:03 59° W
SL-4 R/B 4.1 22:31:54 14° N 22:31:54 14° N 22:32:17 10° N
STARLINK-1230 4.1 22:28:12 20° WSW 22:30:57 58° NNW 22:35:03 10° NE
BREEZE-M DEB (TANK) 3.5 22:19:24 10° WSW 22:31:42 71° NNW 22:35:10 10° ENE
STARLINK-1079 4.0 22:29:27 10° WNW 22:32:48 52° W 22:32:48 52° W
EXPRESS MD2 4.4 22:30:08 11° WSW 22:34:17 78° NNW 22:43:28 10° ENE
Cosmos 1544 Rocket 3.4 22:30:08 10° N 22:34:28 77° E 22:34:36 76° ESE
STARLINK-1243 4.3 22:32:59 17° W 22:35:57 54° NNW 22:40:02 10° NE
Cosmos 1726 3.8 22:33:29 10° NNE 22:36:25 24° ENE 22:36:25 24° ENE
Cosmos 1766 4.4 22:34:49 10° NNW 22:38:24 33° W 22:38:27 33° W
STARLINK-1116 4.3 22:34:26 10° WNW 22:37:35 45° W 22:37:35 45° W
SL-27 R/B 3.2 22:36:31 10° NNW 22:39:37 49° NE 22:39:37 49° NE
STARLINK-1103 4.5 22:36:44 10° NW 22:40:45 48° NNE 22:42:11 33° ENE
STARLINK-1236 4.4 22:37:45 15° W 22:40:57 51° NNW 22:45:00 10° NE
Cosmos 1553 Rocket 3.9 22:37:21 10° N 22:43:44 86° E 22:45:31 50° SSE
Cosmos 1953 3.3 22:40:04 10° N 22:43:45 35° ENE 22:43:45 35° ENE
Cosmos 1461 3.9 22:43:04 32° W 22:44:27 44° NW 22:48:39 10° NNE
Cosmos 1340 Rocket 4.2 22:41:48 10° NNE 22:45:18 28° ENE 22:45:32 28° ENE
STARLINK-1101 4.4 22:41:42 10° NW 22:45:45 50° NNE 22:46:57 37° ENE
Cosmos 1271 Rocket 3.1 22:46:32 56° NE 22:46:32 56° NE 22:49:50 10° NNE
USA 215 3.3 22:45:48 46° SSE 22:47:39 62° SW 22:54:09 10° NW
Cosmos 2026 Rocket 4.3 22:45:54 36° SW 22:48:18 58° WNW 22:54:33 10° N
STARLINK-1102 4.3 22:46:41 10° NW 22:50:46 53° NNE 22:51:45 42° ENE
Aureole 3 Rocket 4.0 22:46:37 10° NNW 22:51:57 76° W 22:54:05 46° S
Cosmos 1758 3.3 22:48:14 10° N 22:52:04 79° N 22:52:04 79° N
Cosmos 1656 Rocket 4.3 22:52:30 38° ESE 22:52:54 38° ESE 22:58:03 10° NE
Cosmos 1707 3.0 22:53:56 62° NE 22:53:56 62° NE 22:57:22 10° NNE
STARLINK-1111 4.1 22:51:39 10° NW 22:55:45 57° NNE 22:56:31 48° ENE
NOSS 2-2 (D) 3.9 22:57:13 45° WNW 22:57:33 47° NW 23:01:27 10° NNE
Cosmos 1900 4.2 22:52:57 10° NW 22:58:00 80° WSW 22:58:31 70° S
YAOGAN 11 4.4 22:58:51 54° E 22:59:13 56° ENE 23:03:30 10° N
STARLINK-1073 4.0 22:56:38 10° NW 23:00:45 61° NNE 23:01:19 54° ENE
NOSS 3-2 (C) 4.2 22:54:12 10° NW 23:01:43 71° NE 23:07:07 25° SE
Cosmos 1975 Rocket 4.4 23:00:54 28° W 23:01:52 31° WNW 23:05:50 10° N
Cosmos 2292 Rocket 4.0 23:02:09 50° E 23:02:09 50° E 23:05:47 10° NNE
APEX 4.5 23:02:48 50° SSE 23:04:18 64° ESE 23:10:04 10° NNE
STARLINK-1121 3.9 23:01:35 10° NW 23:05:43 65° NNE 23:06:04 61° ENE
NOSS 3-4 (A) 3.7 23:10:07 43° SE 23:10:40 44° ESE 23:16:32 10° NE
STARLINK-1106 3.8 23:06:34 10° NW 23:10:43 69° NNE 23:10:51 68° NE
NOSS 3-4 (C) 3.8 23:10:13 43° SE 23:10:46 44° ESE 23:16:38 10° NE
Cosmos 1242 Rocket 3.6 23:11:36 39° WNW 23:11:36 39° WNW 23:14:45 10° N
SL-4 R/B 4.1 23:13:39 21° E 23:13:39 21° E 23:15:48 10° ENE
Meteor 2-10 3.8 23:08:08 10° N 23:13:14 86° ENE 23:13:53 68° SSE
Aureole 3 4.1 23:10:58 10° N 23:13:55 40° NE 23:13:55 40° NE
STARLINK-1112 3.7 23:11:33 10° NW 23:15:39 74° NNE 23:15:39 74° NNE
ATLAS 3B R/B 3.7 23:11:14 10° NNW 23:17:38 42° NE 23:24:11 10° ESE
Cosmos 2266 Rocket 3.9 23:16:09 53° S 23:17:42 80° E 23:23:47 10° N
Cosmos 1674 3.9 23:18:32 34° ENE 23:18:32 34° ENE 23:21:26 10° NNE
ATLAS CENTAUR R/B 3.2 23:20:47 21° E 23:20:47 21° E 23:23:05 10° ENE
STARLINK-1128 3.7 23:16:32 10° NW 23:20:26 74° NNW 23:20:26 74° NNW
Cosmos 1470 4.0 23:17:34 10° NNW 23:20:37 33° WNW 23:20:37 33° WNW
CENTAUR R/B 3.2 23:13:46 10° NW 23:21:51 79° NE 23:27:40 24° SE
Cosmos 1503 Rocket 4.0 23:18:30 10° NNW 23:23:49 81° ENE 23:24:51 59° SE
STARLINK-1113 3.7 23:21:30 10° WNW 23:25:12 69° NW 23:25:12 69° NW
STARLINK-1119 3.9 23:26:29 10° WNW 23:29:59 62° WNW 23:29:59 62° WNW
BREEZE-M DEB (TANK) 3.3 23:28:38 10° WNW 23:32:05 70° NNE 23:37:46 10° ESE
Cosmos 1867 4.1 23:27:57 10° NNW 23:33:19 55° NE 23:36:08 27° ESE
Helios 1A 3.6 23:33:57 45° W 23:33:57 45° W 23:37:40 10° NNW
Cosmos 883 Rocket 4.4 23:29:18 10° N 23:35:30 85° W 23:37:08 52° S
STARLINK-1114 4.0 23:31:29 10° WNW 23:34:46 54° WNW 23:34:46 54° WNW
Meteor 2-19 Rocket 4.4 23:34:37 50° SSW 23:36:20 76° W 23:42:29 10° N
Cosmos 968 Rocket 3.6 23:32:36 10° NNW 23:37:40 56° WSW 23:38:01 55° WSW
Cosmos 1892 Rocket 4.5 23:37:41 37° E 23:37:59 37° E 23:42:02 10° NNE
Cosmos 1354 Rocket 3.9 23:33:24 10° NNW 23:38:43 86° WSW 23:39:37 62° S
ATLAS 2AS CENTAUR R/B 3.0 23:35:54 41° SSW 23:39:03 77° ESE 23:47:01 10° NE
Cosmos 1908 3.5 23:36:31 10° N 23:40:02 61° NE 23:40:02 61° NE
STARLINK-1130 (DARKSAT) 4.2 23:36:26 10° WNW 23:39:31 48° WNW 23:39:31 48° WNW
Cosmos 2369 Rocket 2.9 23:38:58 32° WSW 23:41:11 48° WNW 23:46:41 10° NNE
RESURS DK-1 4.3 23:43:24 19° E 23:43:24 19° E 23:45:58 10° ENE
STARLINK-1084 4.4 23:41:25 10° WNW 23:44:19 43° WNW 23:44:19 43° WNW
Cosmos 1025 Rocket 4.3 23:45:35 29° W 23:45:59 29° WNW 23:49:45 10° NNW
CZ-2D R/B 4.0 23:43:39 10° NE 23:47:03 17° E 23:48:55 15° ESE
NOSS 3-2 (A) 4.3 23:40:23 10° NW 23:47:45 51° WSW 23:50:12 40° SSW
Cosmos 1726 Rocket 3.7 23:45:01 10° N 23:49:19 62° E 23:49:40 60° ESE
Cosmos 2315 Rocket 3.9 23:44:12 10° N 23:50:25 82° W 23:52:12 49° S
Cosmos 1943 Rocket 3.6 23:49:04 19° W 23:52:09 30° NW 23:57:04 10° N
Helios 1B rocket 2.3 23:48:42 10° NNE 23:52:51 86° WNW 23:52:52 86° W
Meteor 2-5 Rocket 3.8 23:52:49 49° SSE 23:54:06 64° E 23:59:37 10° NNE
KORONAS-FOTON 3.9 23:55:12 72° N 23:55:12 72° N 23:58:42 10° N
